Temp
15 15 16 17 16 16 15 15 16 16 16 16 16 16 15 15 15 16 16 16 15 15 15 15 15 15 15 15 15 15 15 14 15 15 15 15 15 15 15 15 15 14 14
15 15 16 16 16 16 15 15 15 16 16 16 15 16 16 16 16 15 15 15 15 14 15 15 15 15 15 14 14 14 15 15 15 15 15 15 15 15 15 15 14 15 15
15 14 16 16 16 16 16 15 15 15 15 15 16 16 16 16 16 16 15 15 15 15 15 16 16 15 15 15 15 14 14 14 15 15 14 14 13 15 15 15 15 15 15
15 14 14 15 15 16 16 16 16 15 15 16 16 16 16 16 16 16 15 15 15 14 15 16 16 15 15 15 15 14 14 14 14 14 13 13 14 14 14 14 14 15 15
15 14 15 15 15 15 15 15 15 15 15 15 15 16 16 16 16 15 15 15 15 14 14 15 15 15 15 15 15 14 14 14 14 14 13 13 13 14 14 14 14 14 15
15 15 15 15 15 14 14 14 14 15 15 15 15 15 15 15 15 15 15 15 14 14 15 14 15 15 15 15 14 14 14 14 14 13 13 14 13 14 14 14 14 15 15
14 14 13 14 14 14 14 14 14 15 15 15 15 15 15 15 15 15 15 15 15 14 14 14 14 14 14 15 15 14 14 14 12 12 13 13 13 13 14 14 14 14 15
14 14 14 14 14 14 14 14 14 14 15 15 14 14 14 14 14 14 14 14 14 14 14 14 14 14 14 14 14 14 14 14 13 12 12 12 14 14 13 13 13 14 14
14 14 13 13 13 14 14 14 14 14 14 14 14 14 14 14 14 14 14 14 14 14 14 14 14 14 14 13 14 14 14 14 12 12 12 12 13 14 14 13 14 13 14
13 13 13 13 14 13 13 13 13 15 14 14 14 14 14 14 14 14 14 14 14 14 14 14 14 14 13 13 13 14 14 14 12 12 12 12 12 13 13 13 13 13 13
14 14 14 14 14 14 14 14 14 14 13 14 14 13 14 14 13 13 14 14 14 13 14 14 13 13 13 13 13 13 13 12 12 12 12 12 12 13 13 13 13 13 13
13 13 13 13 14 14 14 14 14 14 14 14 13 14 14 14 13 13 13 13 13 13 13 14 14 13 13 12 13 13 13 12 12 12 12 13 12 13 13 13 13 13 13
13 13 13 13 13 13 13 13 13 14 14 14 14 13 13 13 13 13 13 13 13 13 13 13 14 13 13 13 13 12 13 13 12 12 12 13 12 13 12 12 13 13 12
13 13 13 13 12 12 12 13 13 13 13 13 13 13 13 13 13 13 13 13 13 13 13 13 13 13 13 13 13 13 12 13 12 12 12 13 13 13 12 12 12 12 13
12 12 12 12 12 12 12 12 12 13 13 13 13 13 13 13 13 13 13 13 13 13 13 13 13 13 13 13 13 13 12 12 12 12 13 13 13 12 13 12 12 12 13
12 12 12 12 12 12 12 12 12 12 13 13 13 13 13 13 13 13 13 13 12 13 13 13 13 13 13 13 13 12 12 12 12 12 12 13 13 13 12 12 12 12 12
12 12 11 12 12 12 12 12 12 13 13 13 13 13 13 13 13 13 13 12 12 12 12 12 12 13 13 13 13 11 12 12 12 12 12 12 13 13 12 12 12 13 12
12 11 12 12 12 12 12 12 12 12 12 12 12 12 12 12 12 12 13 13 12 12 12 12 12 12 12 12 12 13 12 12 12 12 12 12 12 12 12 12 12 12 12
11 11 11 11 11 12 12 12 12 12 12 12 12 12 12 12 12 12 12 12 11 12 12 12 11 11 11 11 12 12 12 12 11 11 12 11 11 12 12 12 11 12 11
11 11 11 11 11 11 11 11 11 11 11 11 12 12 12 11 11 11 11 11 10 10 10 10 10 10 10 10 11 11 11 12 11 10 10 10 11 11 11 11 11 11 11
11 11 10 11 11 11 11 11 11 11 11 11 11 11 10 10 10 10 9 9 9 9 9 9 9 9 9 9 9 10 11 11 11 11 10 10 10 11 11 11 11 11 11
10 10 10 10 10 11 11 11 11 11 11 10 10 9 9 9 9 8 8 7 8 8 7 6 7 8 7 7 7 8 8 9 10 11 10 10 10 10 10 11 11 10 10
10 10 10 10 10 10 11 10 10 10 10 10 9 9 8 8 7 7 7 6 6 6 6 6 6 6 6 7 7 7 9 9 10 8 10 10 10 10 10 10 10 10 10
10 10 10 10 10 10 10 10 10 9 9 8 8 7 7 7 6 6 6 6 6 5 6 5 5 6 6 6 7 7 7 8 9 10 9 10 10 10 9 10 9 10 10
9 9 9 10 10 10 9 9 9 8 7 7 6 6 6 6 6 6 5 5 5 5 5 5 5 5 5 6 6 6 7 7 7 7 8 9 9 9 9 8 9 9 9
9 9 9 9 9 9 8 8 7 7 7 6 5 5 5 5 5 5 5 5 5 5 5 5 5 5 5 5 5 6 6 6 7 7 7 8 8 8 8 8 8 9 9
Height
1522 1522 1523 1525 1527 1529 1529 1530 1531 1533 1534 1535 1535 1536 1537 1538 1538 1539 1540 1540 1541 1541 1542 1541 1541 1541 1541 1541 1541 1541 1541 1541 1541 1541 1541 1542 1542 1542 1543 1543 1543 1544 1544
1523 1524 1524 1526 1527 1529 1531 1531 1532 1533 1534 1536 1536 1537 1538 1538 1539 1540 1540 1541 1541 1542 1542 1542 1542 1542 1542 1543 1543 1542 1542 1542 1542 1542 1543 1543 1543 1544 1544 1544 1545 1545 1546
1524 1525 1525 1527 1528 1530 1531 1532 1533 1534 1535 1536 1537 1538 1538 1539 1539 1540 1541 1541 1542 1542 1543 1543 1543 1543 1543 1543 1543 1544 1543 1543 1543 1543 1544 1546 1546 1545 1545 1545 1546 1546 1547
1524 1526 1527 1527 1529 1530 1532 1533 1534 1535 1536 1537 1538 1539 1539 1539 1540 1540 1540 1541 1542 1543 1543 1543 1544 1544 1544 1544 1544 1544 1545 1544 1544 1544 1546 1546 1547 1546 1546 1546 1547 1547 1548
1523 1525 1526 1528 1529 1530 1532 1533 1534 1535 1536 1537 1538 1539 1539 1539 1540 1540 1540 1541 1542 1542 1543 1543 1544 1544 1545 1545 1545 1545 1545 1545 1545 1545 1546 1546 1548 1546 1546 1547 1547 1548 1549
1524 1526 1526 1527 1529 1530 1532 1533 1534 1535 1536 1537 1538 1539 1540 1540 1540 1540 1541 1541 1542 1542 1543 1544 1544 1544 1545 1545 1544 1545 1545 1545 1546 1546 1546 1546 1547 1547 1547 1547 1548 1549 1549
1523 1524 1526 1527 1528 1529 1531 1532 1534 1534 1535 1537 1538 1539 1540 1540 1540 1540 1541 1541 1542 1542 1543 1544 1544 1544 1545 1545 1545 1545 1545 1546 1547 1547 1547 1547 1546 1546 1547 1548 1548 1549 1550
1524 1525 1527 1528 1529 1529 1530 1532 1533 1533 1534 1535 1537 1538 1539 1540 1540 1539 1541 1541 1542 1542 1542 1543 1544 1544 1544 1545 1545 1544 1545 1545 1546 1547 1547 1548 1546 1546 1547 1547 1548 1548 1549
1524 1524 1527 1528 1529 1529 1530 1531 1531 1532 1533 1533 1534 1536 1538 1539 1539 1539 1540 1540 1541 1542 1542 1542 1543 1543 1544 1544 1544 1544 1545 1545 1547 1548 1547 1548 1545 1546 1547 1547 1548 1549 1549
1525 1526 1527 1528 1527 1527 1529 1530 1530 1530 1529 1532 1534 1536 1536 1537 1538 1538 1539 1539 1541 1541 1541 1541 1541 1542 1542 1543 1543 1543 1544 1544 1546 1546 1547 1547 1545 1545 1545 1547 1548 1548 1549
1526 1527 1527 1528 1528 1529 1529 1529 1529 1530 1526 1532 1534 1536 1534 1537 1536 1537 1537 1538 1539 1539 1540 1539 1540 1540 1540 1541 1542 1542 1543 1543 1545 1545 1546 1545 1545 1545 1545 1545 1546 1547 1548
1525 1526 1526 1527 1528 1528 1529 1529 1530 1531 1531 1533 1534 1534 1535 1535 1536 1535 1536 1537 1537 1537 1538 1538 1538 1538 1538 1539 1539 1540 1541 1543 1543 1543 1543 1543 1544 1544 1544 1545 1546 1546 1547
1525 1525 1526 1527 1527 1528 1529 1530 1530 1530 1531 1532 1533 1533 1534 1534 1534 1534 1534 1534 1535 1535 1535 1535 1535 1536 1536 1537 1538 1538 1538 1539 1540 1541 1541 1541 1542 1543 1544 1544 1545 1545 1546
1524 1525 1525 1526 1527 1528 1529 1530 1530 1531 1531 1531 1532 1533 1533 1533 1532 1533 1533 1533 1533 1532 1532 1533 1533 1532 1533 1533 1534 1535 1535 1536 1537 1538 1539 1539 1540 1541 1542 1543 1543 1544 1544
1524 1525 1525 1526 1528 1528 1529 1530 1530 1530 1531 1531 1532 1532 1532 1532 1531 1531 1531 1531 1531 1530 1530 1530 1530 1529 1530 1530 1531 1531 1532 1533 1533 1534 1535 1535 1537 1539 1540 1540 1541 1541 1542
1525 1525 1526 1527 1528 1530 1530 1530 1530 1530 1531 1531 1531 1531 1530 1530 1530 1530 1529 1529 1528 1528 1527 1527 1527 1526 1526 1527 1527 1527 1528 1528 1529 1530 1531 1532 1533 1535 1536 1537 1538 1539 1540
1526 1526 1527 1528 1530 1531 1531 1531 1531 1531 1530 1530 1530 1529 1529 1528 1527 1527 1526 1526 1525 1524 1524 1524 1524 1523 1523 1523 1523 1523 1523 1524 1524 1525 1526 1527 1527 1529 1532 1533 1534 1535 1537
1526 1528 1528 1529 1531 1531 1532 1532 1531 1530 1529 1529 1528 1527 1526 1526 1525 1524 1523 1522 1521 1521 1521 1521 1520 1520 1520 1520 1519 1518 1518 1519 1520 1521 1521 1521 1522 1523 1526 1529 1530 1531 1531
1527 1528 1529 1530 1531 1531 1532 1531 1530 1529 1528 1527 1526 1524 1523 1522 1521 1519 1518 1518 1517 1517 1516 1516 1516 1517 1517 1516 1516 1515 1514 1514 1515 1515 1516 1516 1517 1519 1521 1524 1525 1527 1527
1527 1528 1529 1530 1530 1531 1530 1529 1528 1527 1526 1524 1523 1521 1519 1518 1516 1515 1514 1513 1512 1512 1511 1512 1512 1512 1513 1513 1512 1511 1510 1509 1510 1510 1511 1511 1513 1514 1516 1518 1520 1521 1522
1526 1527 1529 1529 1529 1529 1528 1528 1527 1525 1523 1521 1519 1517 1515 1513 1512 1511 1510 1509 1508 1508 1507 1507 1507 1507 1507 1507 1507 1506 1505 1504 1504 1505 1505 1506 1507 1508 1510 1512 1515 1516 1517
1524 1526 1527 1528 1528 1527 1526 1525 1523 1521 1520 1517 1515 1513 1512 1510 1508 1507 1505 1505 1504 1503 1503 1503 1502 1502 1502 1504 1504 1505 1503 1502 1499 1500 1500 1501 1502 1503 1505 1507 1509 1511 1511
1522 1524 1525 1526 1526 1525 1524 1523 1521 1519 1518 1515 1513 1511 1509 1507 1505 1503 1502 1501 1500 1499 1499 1499 1499 1498 1498 1499 1501 1503 1501 1499 1499 1496 1496 1497 1498 1499 1500 1501 1502 1504 1506
1521 1524 1524 1525 1524 1523 1522 1521 1519 1517 1514 1512 1509 1506 1504 1503 1501 1499 1498 1497 1496 1495 1495 1495 1495 1495 1495 1495 1495 1496 1496 1497 1496 1495 1493 1493 1493 1493 1494 1496 1496 1497 1500
1520 1521 1522 1522 1522 1522 1521 1519 1517 1514 1511 1508 1505 1502 1500 1498 1497 1495 1493 1492 1491 1490 1490 1490 1490 1490 1490 1490 1490 1491 1491 1491 1492 1494 1492 1492 1490 1489 1489 1489 1491 1492 1494
1517 1519 1520 1520 1519 1519 1518 1516 1515 1511 1508 1505 1502 1499 1495 1493 1491 1490 1488 1486 1486 1484 1484 1484 1484 1484 1484 1484 1484 1485 1485 1485 1486 1487 1488 1489 1488 1488 1486 1486 1486 1488 1489
Wind_Speed
10 11 11 11 11 12 11 12 13 14 13 11 10 9 8 9 9 7 6 6 7 6 5 2 4 5 6 5 5 7 9 9 8 9 9 9 9 10 11 13 13 12 13
12 11 11 12 12 12 12 11 12 12 13 11 10 10 9 7 7 6 6 4 7 6 3 3 5 7 8 7 7 9 8 8 7 8 7 7 7 9 11 12 13 12 12
12 11 10 12 12 12 12 11 11 11 11 10 10 8 7 7 7 6 5 6 7 5 4 5 6 7 7 7 6 5 6 6 6 7 7 5 4 7 9 10 9 9 10
13 11 10 12 12 12 12 11 10 10 9 8 7 7 7 7 7 6 5 5 7 5 4 4 4 5 4 4 4 4 4 4 6 6 4 4 3 6 9 11 11 9 10
13 11 10 11 12 11 11 11 10 9 8 7 6 7 7 6 6 5 5 6 7 6 4 3 2 2 3 2 2 3 4 4 3 4 5 3 4 5 8 11 10 10 9
13 11 11 11 12 11 10 10 9 9 8 8 7 6 6 6 5 5 4 5 7 7 3 5 3 1 1 1 1 2 3 4 3 2 3 2 2 7 8 12 10 8 7
13 12 12 13 13 12 11 10 9 9 9 7 6 6 5 5 6 5 5 5 6 6 4 5 5 3 2 1 1 1 3 4 4 1 1 1 0 5 9 10 7 7 6
13 13 10 11 11 11 11 11 11 11 10 9 8 6 5 6 6 5 5 5 6 6 6 5 5 5 5 3 3 2 3 4 3 2 1 1 5 5 5 8 6 8 8
12 11 10 11 12 12 11 11 12 10 11 11 9 7 6 6 6 5 5 5 5 6 7 6 7 7 8 6 4 4 4 5 4 4 3 2 5 6 7 8 7 8 6
9 8 6 5 8 9 11 12 14 16 13 9 9 8 6 6 7 7 5 6 6 7 7 8 8 9 9 10 6 6 5 6 5 6 5 5 3 5 6 8 8 8 8
6 5 4 3 2 4 3 3 1 2 12 8 8 8 6 6 7 6 7 7 8 8 8 8 9 10 10 12 11 8 7 7 8 8 7 9 5 4 4 8 10 10 8
5 5 4 4 4 3 3 4 3 2 1 3 5 5 5 6 8 7 8 8 9 9 10 11 10 11 12 12 14 12 11 9 9 10 10 10 7 6 6 8 9 10 11
6 6 6 6 6 6 4 4 3 2 3 3 4 5 7 9 10 10 10 11 11 11 11 12 13 13 13 15 16 13 14 12 10 11 12 14 11 10 9 9 11 11 11
6 6 6 6 6 6 6 5 4 3 2 1 1 4 5 7 8 9 10 11 11 11 12 12 13 14 15 16 17 18 18 17 16 13 12 15 16 13 14 13 11 16 13
8 9 10 11 11 11 9 8 6 5 3 2 1 3 5 7 8 10 11 11 12 12 13 14 14 14 15 17 18 19 20 21 21 19 18 17 18 18 17 19 15 18 18
13 15 16 16 15 14 12 10 7 5 3 2 4 5 6 7 8 9 10 11 12 13 14 15 15 16 17 17 17 19 21 23 24 24 22 20 19 21 20 19 19 15 22
18 18 18 15 13 9 7 4 3 3 5 6 8 9 10 11 12 14 14 14 13 14 13 13 14 14 15 16 19 20 21 21 25 22 26 27 24 23 24 23 19 18 22
18 17 15 12 9 5 2 2 5 7 7 8 9 10 11 12 13 15 16 17 18 18 18 17 16 16 15 16 16 18 21 24 24 22 24 27 26 25 29 27 24 22 23
17 14 11 9 5 3 3 6 8 9 10 10 11 12 13 14 14 15 16 17 18 20 21 21 21 20 19 18 18 17 19 20 23 24 25 24 25 28 31 30 26 25 23
16 13 10 6 3 3 6 9 10 10 11 11 12 13 14 14 15 16 17 17 17 18 20 21 21 21 21 21 20 20 20 21 21 21 23 23 25 30 33 32 30 26 26
16 12 8 6 5 6 8 9 10 13 14 14 15 14 15 15 15 14 15 15 15 16 18 20 21 22 21 23 21 20 22 23 22 21 23 24 25 25 27 33 30 31 27
16 13 9 6 6 7 9 12 14 17 18 18 17 16 14 14 16 16 15 15 14 15 14 15 18 21 20 20 16 12 11 13 20 21 22 23 25 25 27 31 35 31 29
17 13 9 7 7 8 10 13 15 16 17 16 17 16 14 14 15 16 16 16 16 16 15 13 14 16 18 20 21 16 9 11 10 13 22 26 26 28 30 30 31 34 32
17 12 9 7 7 9 11 13 15 17 17 18 18 19 18 16 16 16 17 17 18 18 18 15 14 15 16 20 21 25 25 18 10 10 11 17 23 26 25 26 28 32 30
16 12 8 7 7 9 12 14 16 17 18 19 20 21 20 19 17 18 18 19 20 20 21 19 18 16 17 19 21 21 25 28 25 26 21 12 14 15 18 22 26 25 29
15 11 7 6 7 9 12 14 16 18 19 18 19 20 18 17 15 13 17 19 21 22 23 22 20 21 19 20 22 25 28 25 29 26 24 25 22 18 19 13 12 18 22
Wind_Direction
162 164 166 165 164 160 151 145 151 163 161 160 155 151 143 144 142 138 132 120 129 119 111 59 72 105 134 123 109 115 116 117 109 109 117 128 133 128 126 123 115 121 120
160 164 169 170 170 167 164 154 149 154 158 159 154 145 143 147 144 151 137 132 140 129 108 81 88 96 113 114 104 104 113 120 116 110 111 116 138 144 134 130 134 130 123
159 160 166 169 169 171 173 168 159 158 155 158 158 161 162 162 160 160 150 147 146 140 111 95 91 101 114 124 126 116 109 121 118 112 107 113 147 153 161 155 152 146 136
162 157 163 171 168 173 175 175 172 168 167 166 168 168 167 163 163 167 169 168 168 160 136 104 86 85 96 114 137 145 144 127 116 114 89 120 110 167 161 156 155 143 135
170 160 171 171 172 172 176 179 180 176 169 175 171 164 163 166 169 166 172 169 172 172 169 147 121 80 75 88 124 155 163 165 150 101 97 118 140 185 177 172 165 148 144
170 172 164 167 175 170 175 180 177 177 183 184 184 179 169 171 175 178 182 180 186 189 192 198 196 192 67 38 115 164 177 172 147 127 95 111 92 196 174 168 160 157 155
174 165 164 164 178 182 183 188 191 192 192 193 187 190 186 187 188 183 184 190 199 207 213 213 225 234 236 345 301 198 208 204 185 193 144 86 174 164 193 192 202 210 191
192 190 176 179 183 181 186 191 194 194 197 199 202 205 198 199 196 200 202 205 212 215 220 235 245 250 236 265 277 251 233 215 196 216 223 192 235 189 175 204 201 167 170
181 186 188 194 195 198 204 206 205 197 192 200 204 209 219 219 212 214 210 214 217 222 225 231 246 255 248 247 262 268 250 231 202 229 228 273 239 216 210 207 200 195 231
145 156 177 199 221 210 225 226 232 214 211 204 209 219 212 218 222 228 226 230 237 232 234 237 249 249 246 243 254 263 265 251 225 232 236 236 249 229 221 215 202 205 206
160 165 175 182 169 153 186 224 319 53 208 201 219 225 225 241 232 231 240 247 251 254 251 254 251 247 243 241 245 254 261 245 234 232 234 245 253 255 230 213 213 210 205
190 206 219 224 220 217 211 225 230 228 233 209 215 236 246 261 263 252 253 259 262 263 269 261 255 251 237 236 247 246 255 242 239 242 240 240 243 243 225 221 214 212 208
209 221 222 226 221 205 190 175 195 216 227 239 237 232 245 252 257 271 270 269 265 268 266 261 255 252 249 240 234 236 249 254 247 247 243 241 241 241 242 225 222 220 216
185 182 177 167 165 163 160 141 128 129 130 149 249 249 252 259 263 267 266 268 270 272 268 262 259 257 250 246 243 243 251 252 255 247 247 242 241 243 240 243 238 235 231
156 146 139 130 128 126 128 120 113 102 82 49 307 289 282 276 272 271 272 270 270 268 267 269 267 262 258 251 248 248 247 250 251 253 253 249 239 238 244 244 246 241 230
143 133 127 125 120 116 112 107 97 82 53 359 325 308 298 292 287 280 274 272 270 270 271 270 270 270 266 259 251 251 251 252 253 257 255 255 243 236 239 248 250 255 228
142 135 131 130 127 125 118 99 54 350 327 310 299 295 289 284 281 279 277 276 274 274 273 273 274 274 274 268 262 249 254 262 256 265 256 254 244 234 236 244 249 251 234
151 147 145 144 146 147 140 346 333 326 320 311 305 295 287 281 276 274 273 271 270 270 269 269 270 273 275 277 272 266 258 254 256 255 255 244 245 233 231 235 238 239 237
163 162 163 167 177 209 291 321 328 330 327 321 312 303 296 290 285 281 277 272 266 264 262 263 265 267 270 271 270 266 265 259 252 252 255 249 246 233 232 232 236 246 246
176 178 182 195 225 280 313 325 329 329 326 322 314 307 300 291 285 281 278 276 273 271 269 263 262 260 260 261 265 265 264 260 256 250 249 247 246 236 237 233 233 242 246
184 188 200 218 251 296 314 319 325 331 330 326 319 313 305 301 295 288 282 281 278 272 270 265 263 261 262 265 268 271 271 263 258 253 248 244 240 240 240 235 238 244 245
193 198 210 231 274 304 319 329 333 332 329 325 321 319 311 303 296 292 290 287 285 283 280 274 267 262 259 256 257 267 274 276 265 249 248 246 240 242 241 243 237 245 250
194 201 212 244 283 306 322 328 330 327 323 318 314 311 310 304 297 291 285 283 282 287 285 276 268 265 257 259 251 243 261 255 271 253 252 248 247 247 254 256 249 242 245
196 204 221 258 289 311 321 326 329 328 326 321 321 317 315 309 301 293 287 281 278 279 284 278 271 264 258 253 254 246 244 247 256 267 279 264 256 252 257 248 253 248 247
195 203 223 252 290 311 321 327 327 328 326 324 322 318 315 310 297 290 287 284 281 279 280 279 270 265 258 255 250 251 251 248 250 254 265 269 264 273 278 254 249 249 249
194 207 228 264 299 313 322 322 322 325 326 325 326 325 324 322 318 304 285 280 280 278 277 275 272 264 261 257 256 252 249 248 249 246 250 253 260 268 265 273 263 259 252